Location: Unspecified
(0.0000°N, 0.0000°E)
Time: 03:29:28
(UTC+00:00)

LES 2 - Pass Details

Date: 17 October 2025
Orbit: 2783 x 14792 km, 32.1° (Epoch: 30 October)

Event Time Altitude Azimuth Distance (km) Brightness Sun altitude
Exits shadow 01:03:58 28° 185° (S) 5,160 ? -68.4°
Drops below altitude 10° 01:24:23 10° 133° (SE) 9,466 ? -63.7°
Sets 01:39:46 0° 120° (ESE) 12,823 ? -60.1°
